This is the latest recevied weather packets stored in our database for station/object RN1M-13. If no packets are shown the sender has not sent any weather packets the latest 10 day(s).
| Time | Temp. | Humidity | Pressure | Rain* | Wind** | Luminosity | Snow |
|---|---|---|---|---|---|---|---|
| 1777704457 | 14.44° C | 100% | 1011.1 hPa | - | - | - | - |
| 1777703557 | 15° C | 100% | 1011.2 hPa | - | - | - | - |
| 1777702657 | 14.44° C | 100% | 1011.3 hPa | - | - | - | - |
| 1777701757 | 13.33° C | 100% | 1011.5 hPa | - | - | - | - |
| 1777700857 | 12.78° C | 100% | 1011.5 hPa | - | - | - | - |
| 1777699957 | 12.78° C | 100% | 1011.6 hPa | - | - | - | - |
| 1777699057 | 12.78° C | 100% | 1011.5 hPa | - | - | - | - |
| 1777698159 | 12.78° C | 100% | 1011.4 hPa | - | - | - | - |
| 1777697261 | 12.78° C | 100% | 1011.3 hPa | - | - | - | - |
| 1777696361 | 12.78° C | 100% | 1011.4 hPa | - | - | - | - |
| 1777695461 | 12.22° C | 100% | 1011.4 hPa | - | - | - | - |
| 1777694569 | 12.22° C | 100% | 1011.6 hPa | - | - | - | - |
| 1777693661 | 11.67° C | 100% | 1011.5 hPa | - | - | - | - |
| 1777692768 | 11.11° C | 100% | 1011.6 hPa | - | - | - | - |
| 1777691860 | 10.56° C | 100% | 1011.5 hPa | - | - | - | - |
| 1777690960 | 10.56° C | 100% | 1011.7 hPa | - | - | - | - |
| 1777690060 | 10.56° C | 100% | 1011.9 hPa | - | - | - | - |
| 1777689160 | 10.56° C | 100% | 1012 hPa | - | - | - | - |
| 1777688268 | 10° C | 100% | 1012.1 hPa | - | - | - | - |
| 1777687362 | 10° C | 100% | 1012.2 hPa | - | - | - | - |
| 1777686467 | 10° C | 100% | 1012.2 hPa | - | - | - | - |
| 1777685564 | 10° C | 100% | 1012.2 hPa | - | - | - | - |
| 1777684667 | 10° C | 100% | 1012.3 hPa | - | - | - | - |
| 1777682864 | 10° C | 100% | 1012.3 hPa | - | - | - | - |
| 1777681963 | 10° C | 100% | 1012.5 hPa | - | - | - | - |
* Rain since midnight (hover to see other rain measurements)
** Current wind speed in m/s (hover to see current wind gust speed)